Terminal Aerodrome Forecast
Issued by NWS Omaha/Valley, NE

Home | Current Version | Previous Version | Graphics & Text | Print | Product List | Glossary On
Versions: 1 2 3 4 5 6 7 8 9 10 11 12 13 14 15 16 17 18 19 20 21 22 23 24 25 26 27 28 29 30 31 32 33 34 35 36 37 38
000
FTUS43 KOAX 202344
TAFOFK
TAF
KOFK 202344Z 2100/2124 02005KT P6SM VCSH OVC010
     FM210500 VRB03KT P6SM OVC008
     FM211100 00000KT 4SM BR BKN015
     FM211400 27004KT 6SM BR BKN035
     FM211500 26005KT P6SM SCT025=

USA.gov is the U.S. government's official web portal to all federal, state and local government web resources and services.